カタログに戻る

THOR ABLESTAR DEB

運用中LEO
NORAD 3744·DEBRIS·🇺🇸 United States

打ち上げ Jun 29, 1961 から Cape Canaveral Space Force Station

Loading…

次のパス (今後24時間)

TLE

最新Source: Space-Track

元期: Sep 14, 2026, 09:47 UTC

1 03744U 61015JC  26257.40768236  .00001870  00000-0  12045-2 0  9999
2 03744  66.9737 252.8726 0115897  39.4639 321.4816 14.01922908893039

AllMySatでTHOR ABLESTAR DEBをリアルタイム追跡

Download on the App Store